Regional Weather Roundup
Issued by NWS Kansas City/Pleasant Hill, MO

Home | Current Version | Previous Version | Graphics & Text | Print | Product List | Glossary Off
Versions: 1 2 3 4 5 6 7 8 9 10 11 12 13 14 15 16 17 18 19 20 21 22 23 24 25 26 27 28 29 30 31 32 33 34 35 36 37 38 39 40 41 42 43 44 45 46 47 48 49 50

199
ASUS43 KEAX 050210
RWREAX

WEATHER ROUNDUP FOR EASTERN KANSAS AND NORTHWEST MISSOURI
NATIONAL WEATHER SERVICE KANSAS CITY/PLEASANT HILL MO
800 PM CST THU FEB 04 2016

KSZ040-057-103>105-MOZ028-029-037-043-050300-
...KANSAS CITY METROPOLITAN AREA...

CITY           SKY/WX    TMP DP  RH WIND       PRES   REMARKS
K.C. INTL      CLEAR     31  19  61 NW7       30.30R WCI  24
K.C. DOWNTOWN  CLEAR     37  17  44 CALM      30.30R
LEES SUMMIT    CLEAR     37  14  38 W5        30.29R WCI  33
OLATHE - IXD   CLEAR     32  17  54 W6        30.31R WCI  26
OLATHE - OJC   CLEAR     34  16  47 W6        30.30R WCI  29
LAWRENCE       CLEAR     27  17  66 NW6       30.32R WCI  20

$$

MOZ001>008-011>017-020>025-030>033-038>040-044>046-053-054-050300-
...NORTHERN AND CENTRAL MISSOURI...

CITY           SKY/WX    TMP DP  RH WIND       PRES   REMARKS
ST. JOSEPH     CLEAR     27  19  72 NW7       30.33R WCI  19
MOSBY          CLEAR     36  18  48 NW3       30.29S
WARRENSBURG    CLEAR     34  18  51 SW6       30.29S WCI  29
WHITEMAN AFB   CLEAR     28  19  68 SW8       30.28S WCI  20
CLINTON          N/A     32  23  69 CALM      30.31S
SEDALIA        CLEAR     35  20  54 SW8       30.30S WCI  29
WARSAW         NOT AVBL
CHILLICOTHE      N/A     35  23  61 NW8       30.28S WCI  29
KIRKSVILLE     CLEAR     31  21  66 SW6       30.25R WCI  25

$$

MOZ041-047>049-056>058-063>065-088>090-097-050300-
...EASTERN AND SOUTHERN MISSOURI...

CITY           SKY/WX    TMP DP  RH WIND       PRES   REMARKS
ST. LOUIS INTL CLEAR     34  16  47 CALM      30.32R
SPIRIT OF STL  CLEAR     28  20  71 CALM      30.31S
COLUMBIA       CLEAR     32  20  61 S7        30.29S WCI  26
JEFFERSON CITY CLEAR     31  18  58 CALM      30.32S
ROLLA          CLEAR     32  15  49 SW6       30.29R WCI  26
OSAGE BEACH    CLEAR     32  16  51 S5        30.32R WCI  27
SPRINGFIELD    CLEAR     27  16  63 S8        30.31S WCI  19
BRANSON        CLEAR     34  12  40 SW5       30.35S WCI  30
JOPLIN         CLEAR     35  14  42 SW6       30.34R WCI  30
WEST PLAINS    CLEAR     31  12  45 SW6       30.34R WCI  25

$$

IAZ060-094-KSZ022-034>040-054-083-096-NEZ052-066-093-050300-
...KANSAS...SOUTHEAST NEBRASKA AND IOWA...

CITY           SKY/WX    TMP DP  RH WIND       PRES   REMARKS
TOPEKA         CLEAR     33  17  51 W6        30.33R WCI  28
MANHATTAN      CLEAR     29  20  69 N3        30.33R
EMPORIA        CLEAR     33  16  49 NW5       30.30R WCI  29
CHANUTE        CLEAR     25  17  72 S6        30.31S WCI  18
WICHITA        CLEAR     35  16  45 NW6       30.31R WCI  30
OMAHA          CLEAR     25  19  78 NW6       30.31R WCI  18
LINCOLN        CLEAR     19  15  84 CALM      30.33S
FALLS CITY     CLEAR     24  19  81 W8        30.34R WCI  15
LAMONI         CLEAR     26  20  77 NW8       30.28R WCI  18
DES MOINES     PTCLDY    27  19  72 NW16      30.28R WCI  15

$$





USA.gov is the U.S. government's official web portal to all federal, state and local government web resources and services.